Volver al catálogo

BREEZE-KM R/B

ActivoPO
NORAD 40923·ROCKET BODY·🇷🇺 Russia

Lanzado Sep 23, 2015 desde Plesetsk Cosmodrome

Loading…

Próximos Pases (próximas 24 horas)

TLE

ActualizadoSource: Space-Track

Época: Sep 14, 2026, 12:42 UTC

1 40923U 15050D   26257.52941760  .00000016  00000-0  26452-4 0  9995
2 40923  82.4907 201.6196 0201348 253.3878 104.5030 12.80444149513008

Sigue BREEZE-KM R/B en tiempo real con AllMySat

Download on the App Store